Retour au catalogue

STARLINK-35889

ActifCommunicationsVLEO
NORAD 67189·PAYLOAD·🇺🇸 United States

Lancé Dec 17, 2025 depuis Cape Canaveral Space Force Station

Loading…

Prochains Passages (prochaines 24 heures)

TLE

FraisSource: CelesTrak SupGP

Époque: Sep 15, 2026, 02:42 UTC

1 67189C 25303AC  26258.11298611  .00041981  00000+0  15203-2 0  2589
2 67189  43.0006 321.3047 0001534 263.2561 355.7685 15.27561817    17

Suivez STARLINK-35889 en temps réel avec AllMySat

Download on the App Store